User: anonymous   Login
Location: Newark
(44.0167°N, 1.3500°E)
Time: 10:53:59
(UTC+00:00)
Language:

CUBEBUG 2 - Orbit

View from above orbital plane
View from above orbital plane
View from above satellite
View from above satellite

Ground track
Ground track

The orbit data is extracted from the following two-line orbital elements,

1 39440U 13066AA  19344.93917949  .00000141  00000-0  26724-4 0  9999
2 39440  97.6136 333.1371 0078972 235.1385 124.2383 14.75928499325826
Epoch (UTC): 10 December 2019 22:32:25
Eccentricity: 0.0078972
inclination: 97.6136°
perigee height: 587 km
apogee height: 697 km
right ascension of ascending node: 333.1371°
argument of perigee: 235.1385°
revolutions per day: 14.75928499
mean anomaly at epoch: 124.2383°
orbit number at epoch: 32582

The dashed part of the orbit path shows where the satellite is in the earth's shadow,  

DLR